Location: Wildlife_Club
(35.6000°N, 81.4330°W)
Time: 10:01:41
(UTC-04:00)

A-11 Canister half - Pass Details

Date: 04 July 2019
Orbit: 1515 x 1685 km, 47.2° (Epoch: 15 July)

Event Time Altitude Azimuth Distance (km) Brightness Sun altitude
Rises 12:58:52 0° 297° (WNW) 4,902 11.5 75.6°
Reaches altitude 10° 13:02:14 10° 303° (WNW) 3,894 11.1 75.9°
Maximum altitude 13:11:50 50° 17° (NNE) 1,968 10.3 76.6°
Drops below altitude 10° 13:21:04 10° 92° (E) 3,758 11.2 77.1°
Sets 13:24:15 0° 97° (E) 4,719 11.6 77.2°
